| time (UTC) | temp C | wind direction | speed KPH | gust KPH | rain 1hr cm | rain 24hr cm | rain mn cm | humidity % | barometer mb |
| 20260503060203 | 7 | 307 | 0.0 | 0.0 | 0.00 | 0.23 | 0.00 | 91 | 1012.9 |
| 20260503054832 | 7 | 3 | 0.0 | 3.2 | 0.00 | 0.00 | 0.00 | 99 | 1014.4 |
| 20260503054328 | 7 | 339 | 0.0 | 3.2 | 0.00 | 0.00 | 0.00 | 99 | 1014.3 |
| 20260503054204 | 7 | 307 | 0.0 | 0.0 | 0.00 | 0.23 | 0.00 | 91 | 1012.9 |
| 20260503053826 | 7 | 79 | 0.0 | 3.2 | 0.00 | 0.00 | 0.00 | 99 | 1014.3 |
| 20260503053704 | 8 | 307 | 0.0 | 0.0 | 0.00 | 0.23 | 0.00 | 91 | 1012.9 |
| 20260503053324 | 7 | 335 | 0.0 | 3.2 | 0.00 | 0.00 | 0.00 | 99 | 1014.2 |
| 20260503052820 | 7 | 315 | 0.0 | 3.2 | 0.00 | 0.00 | 0.00 | 99 | 1014.2 |
| 20260503052704 | 8 | 307 | 0.0 | 0.0 | 0.00 | 0.23 | 0.00 | 91 | 1012.6 |
| 20260503052317 | 7 | 357 | 0.0 | 3.2 | 0.00 | 0.00 | 0.00 | 99 | 1014.1 |
| 20260503052204 | 8 | 307 | 0.0 | 0.0 | 0.00 | 0.23 | 0.00 | 90 | 1012.6 |
| 20260503051813 | 8 | 348 | 0.0 | 3.2 | 0.00 | 0.00 | 0.00 | 99 | 1014.2 |
| 20260503051704 | 8 | 307 | 0.0 | 0.0 | 0.00 | 0.23 | 0.00 | 90 | 1012.6 |
| 20260503051309 | 8 | 50 | 0.0 | 3.2 | 0.00 | 0.00 | 0.00 | 99 | 1014.2 |
| 20260503050806 | 8 | 22 | 0.0 | 3.2 | 0.00 | 0.00 | 0.00 | 99 | 1014.2 |
| 20260503050704 | 8 | 307 | 0.0 | 0.0 | 0.00 | 0.23 | 0.00 | 90 | 1012.8 |
| 20260503050303 | 8 | 347 | 1.6 | 3.2 | 0.00 | 0.00 | 0.00 | 99 | 1014.2 |
| 20260503050203 | 8 | 307 | 0.0 | 0.0 | 0.00 | 0.23 | 0.00 | 90 | 1012.9 |
| 20260503045801 | 8 | 4 | 0.0 | 3.2 | 0.00 | 0.00 | 0.00 | 99 | 1014.5 |
| 20260503045258 | 8 | 260 | 0.0 | 3.2 | 0.00 | 0.00 | 0.00 | 99 | 1014.4 |
| 20260503044754 | 8 | 39 | 0.0 | 3.2 | 0.00 | 0.00 | 0.00 | 99 | 1014.3 |
| 20260503044704 | 8 | 307 | 0.0 | 0.0 | 0.00 | 0.23 | 0.23 | 90 | 1013.0 |
| 20260503044251 | 8 | 321 | 0.0 | 1.6 | 0.00 | 0.00 | 0.00 | 99 | 1014.3 |
| 20260503044204 | 8 | 307 | 0.0 | 0.0 | 0.00 | 0.23 | 0.23 | 90 | 1013.0 |
| 20260503043748 | 8 | 299 | 0.0 | 1.6 | 0.00 | 0.00 | 0.00 | 99 | 1014.4 |
| 20260503043704 | 8 | 307 | 0.0 | 0.0 | 0.00 | 0.23 | 0.23 | 90 | 1013.0 |
| 20260503043245 | 8 | 351 | 0.0 | 3.2 | 0.00 | 0.00 | 0.00 | 99 | 1014.3 |
| 20260503043204 | 8 | 307 | 0.0 | 0.0 | 0.00 | 0.23 | 0.23 | 90 | 1013.0 |
| 20260503042741 | 8 | 133 | 0.0 | 3.2 | 0.00 | 0.00 | 0.00 | 99 | 1014.3 |
| 20260503042703 | 8 | 307 | 0.0 | 0.0 | 0.00 | 0.23 | 0.23 | 90 | 1012.9 |
| 20260503042238 | 8 | 29 | 0.0 | 3.2 | 0.00 | 0.00 | 0.00 | 99 | 1014.2 |
| 20260503041734 | 8 | 64 | 0.0 | 3.2 | 0.00 | 0.00 | 0.00 | 99 | 1014.2 |
| 20260503041232 | 8 | 66 | 0.0 | 3.2 | 0.00 | 0.00 | 0.00 | 99 | 1014.3 |
| 20260503040729 | 8 | 120 | 1.6 | 3.2 | 0.00 | 0.00 | 0.00 | 99 | 1014.2 |
| 20260503040221 | 8 | 11 | 0.0 | 3.2 | 0.00 | 0.00 | 0.00 | 99 | 1014.1 |
| 20260503035718 | 8 | 141 | 0.0 | 3.2 | 0.00 | 0.00 | 0.00 | 99 | 1014.1 |
| 20260503035704 | 8 | 307 | 0.0 | 0.0 | 0.00 | 0.23 | 0.23 | 90 | 1012.5 |
| 20260503035215 | 8 | 126 | 0.0 | 1.6 | 0.00 | 0.00 | 0.00 | 99 | 1014.0 |
| 20260503035206 | 8 | 307 | 0.0 | 0.0 | 0.00 | 0.23 | 0.23 | 90 | 1012.5 |
| 20260503034712 | 8 | 40 | 0.0 | 0.0 | 0.00 | 0.00 | 0.00 | 99 | 1014.1 |
| 20260503034209 | 8 | 55 | 0.0 | 1.6 | 0.00 | 0.00 | 0.00 | 99 | 1013.9 |
| 20260503033707 | 8 | 44 | 0.0 | 3.2 | 0.00 | 0.00 | 0.00 | 99 | 1014.0 |
| 20260503033206 | 9 | 307 | 0.0 | 0.0 | 0.00 | 0.23 | 0.23 | 90 | 1012.5 |
| 20260503033204 | 8 | 6 | 0.0 | 3.2 | 0.00 | 0.00 | 0.00 | 99 | 1013.9 |
| 20260503032706 | 9 | 307 | 0.0 | 0.0 | 0.00 | 0.23 | 0.23 | 90 | 1012.4 |
| 20260503032702 | 8 | 71 | 0.0 | 3.2 | 0.00 | 0.00 | 0.00 | 99 | 1013.9 |
| 20260503032200 | 8 | 32 | 0.0 | 1.6 | 0.00 | 0.00 | 0.00 | 99 | 1014.0 |
| 20260503031657 | 8 | 32 | 0.0 | 3.2 | 0.00 | 0.00 | 0.00 | 99 | 1013.8 |
| 20260503031155 | 8 | 78 | 0.0 | 1.6 | 0.00 | 0.00 | 0.00 | 99 | 1013.6 |
| 20260503030651 | 8 | 105 | 0.0 | 3.2 | 0.00 | 0.00 | 0.00 | 99 | 1013.7 |
| 20260503030206 | 9 | 307 | 0.0 | 0.0 | 0.00 | 0.23 | 0.23 | 90 | 1012.2 |
| 20260503030148 | 8 | 106 | 0.0 | 3.2 | 0.00 | 0.00 | 0.00 | 99 | 1013.5 |
| 20260503025645 | 8 | 129 | 0.0 | 3.2 | 0.00 | 0.00 | 0.00 | 99 | 1013.8 |
| 20260503025143 | 8 | 50 | 0.0 | 1.6 | 0.00 | 0.00 | 0.00 | 99 | 1013.7 |
| 20260503024638 | 8 | 67 | 1.6 | 3.2 | 0.00 | 0.00 | 0.00 | 99 | 1013.8 |
| 20260503024205 | 9 | 307 | 0.0 | 0.0 | 0.00 | 0.23 | 0.23 | 89 | 1012.1 |
| 20260503024136 | 8 | 347 | 0.0 | 3.2 | 0.00 | 0.00 | 0.00 | 99 | 1013.7 |
| 20260503023633 | 8 | 63 | 0.0 | 3.2 | 0.00 | 0.00 | 0.00 | 99 | 1013.6 |
| 20260503023205 | 10 | 307 | 0.0 | 0.0 | 0.00 | 0.23 | 0.23 | 89 | 1011.9 |
| 20260503023130 | 8 | 97 | 1.6 | 3.2 | 0.00 | 0.00 | 0.00 | 99 | 1013.5 |
| 20260503022706 | 10 | 307 | 0.0 | 0.0 | 0.03 | 0.23 | 0.23 | 89 | 1012.0 |
| 20260503022626 | 8 | 69 | 0.0 | 3.2 | 0.00 | 0.00 | 0.00 | 99 | 1013.5 |
| 20260503022121 | 9 | 1 | 0.0 | 3.2 | 0.00 | 0.00 | 0.00 | 99 | 1013.3 |
| 20260503021705 | 10 | 307 | 0.0 | 0.0 | 0.03 | 0.23 | 0.23 | 89 | 1011.7 |
| 20260503021618 | 9 | 322 | 0.0 | 1.6 | 0.00 | 0.00 | 0.00 | 99 | 1013.0 |
| 20260503021114 | 9 | 108 | 0.0 | 3.2 | 0.00 | 0.00 | 0.00 | 99 | 1013.0 |
| 20260503020611 | 9 | 118 | 1.6 | 3.2 | 0.00 | 0.00 | 0.00 | 99 | 1013.5 |
| 20260503020109 | 9 | 95 | 1.6 | 3.2 | 0.00 | 0.00 | 0.00 | 99 | 1013.5 |
| 20260503015605 | 9 | 44 | 0.0 | 1.6 | 0.00 | 0.00 | 0.00 | 99 | 1013.3 |
| 20260503015103 | 9 | 89 | 0.0 | 1.6 | 0.00 | 0.00 | 0.00 | 99 | 1013.7 |
| 20260503014558 | 9 | 89 | 0.0 | 3.2 | 0.00 | 0.00 | 0.00 | 98 | 1013.6 |
| 20260503014056 | 9 | 145 | 0.0 | 3.2 | 0.00 | 0.00 | 0.00 | 98 | 1013.6 |
| 20260503013553 | 9 | 137 | 0.0 | 3.2 | 0.00 | 0.00 | 0.00 | 98 | 1013.3 |
| 20260503013205 | 10 | 327 | 0.0 | 0.0 | 0.03 | 0.23 | 0.23 | 87 | 1011.9 |
| 20260503013051 | 10 | 62 | 0.0 | 1.6 | 0.00 | 0.00 | 0.00 | 98 | 1013.3 |
| 20260503012548 | 10 | 105 | 0.0 | 3.2 | 0.00 | 0.00 | 0.00 | 98 | 1013.2 |
| 20260503012205 | 11 | 327 | 0.0 | 0.0 | 0.00 | 0.20 | 0.20 | 88 | 1011.7 |
| 20260503012045 | 10 | 129 | 0.0 | 1.6 | 0.00 | 0.00 | 0.00 | 98 | 1013.0 |
| 20260503011705 | 11 | 327 | 0.0 | 0.0 | 0.00 | 0.20 | 0.20 | 87 | 1011.5 |
| 20260503011541 | 10 | 84 | 0.0 | 3.2 | 0.00 | 0.00 | 0.00 | 98 | 1012.9 |
| 20260503011039 | 10 | 73 | 0.0 | 3.2 | 0.00 | 0.00 | 0.00 | 98 | 1012.8 |
| 20260503010534 | 10 | 65 | 1.6 | 3.2 | 0.00 | 0.00 | 0.00 | 98 | 1012.8 |
| 20260503010032 | 10 | 53 | 0.0 | 3.2 | 0.00 | 0.00 | 0.00 | 98 | 1012.7 |
| 20260503005705 | 11 | 327 | 0.0 | 0.0 | 0.00 | 0.20 | 0.20 | 87 | 1011.3 |
| 20260503005529 | 10 | 22 | 0.0 | 1.6 | 0.00 | 0.00 | 0.00 | 98 | 1012.8 |
| 20260503005027 | 10 | 34 | 1.6 | 1.6 | 0.00 | 0.00 | 0.00 | 98 | 1012.5 |
| 20260503004522 | 10 | 322 | 0.0 | 1.6 | 0.00 | 0.00 | 0.00 | 98 | 1012.3 |
| 20260503004021 | 10 | 62 | 0.0 | 1.6 | 0.00 | 0.00 | 0.00 | 98 | 1012.4 |
| 20260503003705 | 11 | 327 | 0.0 | 0.0 | 0.00 | 0.20 | 0.20 | 87 | 1010.9 |
| 20260503003517 | 11 | 38 | 0.0 | 1.6 | 0.00 | 0.00 | 0.00 | 98 | 1012.2 |
| 20260503003205 | 11 | 327 | 0.0 | 0.0 | 0.00 | 0.20 | 0.20 | 87 | 1010.9 |
| 20260503003015 | 11 | 37 | 0.0 | 1.6 | 0.00 | 0.00 | 0.00 | 98 | 1012.3 |
| 20260503002511 | 11 | 62 | 0.0 | 3.2 | 0.00 | 0.00 | 0.00 | 98 | 1012.1 |
| 20260503002205 | 11 | 327 | 0.0 | 0.0 | 0.00 | 0.20 | 0.20 | 88 | 1010.7 |
| 20260503002008 | 11 | 140 | 0.0 | 3.2 | 0.00 | 0.00 | 0.00 | 98 | 1012.1 |
| 20260503001704 | 12 | 327 | 0.0 | 0.0 | 0.00 | 0.20 | 0.20 | 88 | 1010.7 |
| 20260503001504 | 11 | 29 | 0.0 | 1.6 | 0.00 | 0.00 | 0.00 | 98 | 1012.1 |
| 20260503001205 | 12 | 327 | 0.0 | 0.0 | 0.00 | 0.20 | 0.20 | 88 | 1010.6 |
| 20260503001002 | 11 | 93 | 0.0 | 1.6 | 0.00 | 0.00 | 0.00 | 98 | 1011.9 |
| 20260503000704 | 12 | 327 | 0.0 | 0.0 | 0.00 | 0.20 | 0.20 | 88 | 1010.4 |
| 20260503000459 | 11 | 45 | 1.6 | 3.2 | 0.00 | 0.00 | 0.00 | 98 | 1012.0 |
| 20260503000205 | 12 | 327 | 0.0 | 1.6 | 0.00 | 0.20 | 0.20 | 88 | 1010.3 |
| 20260502235956 | 11 | 13 | 0.0 | 3.2 | 0.00 | 0.00 | 0.00 | 98 | 1011.9 |
| 20260502235705 | 12 | 327 | 0.0 | 1.6 | 0.00 | 0.20 | 0.20 | 88 | 1010.3 |
| 20260502235453 | 11 | 71 | 0.0 | 3.2 | 0.00 | 0.00 | 0.00 | 98 | 1011.7 |
| 20260502234950 | 11 | 326 | 0.0 | 1.6 | 0.00 | 0.00 | 0.00 | 97 | 1011.5 |
| 20260502234446 | 11 | 333 | 0.0 | 1.6 | 0.00 | 0.00 | 0.00 | 97 | 1011.5 |
| 20260502234205 | 12 | 327 | 0.0 | 0.0 | 0.00 | 0.20 | 0.20 | 87 | 1010.0 |
| 20260502233944 | 11 | 113 | 0.0 | 0.0 | 0.00 | 0.00 | 0.00 | 97 | 1011.4 |
| 20260502233705 | 12 | 276 | 0.0 | 1.6 | 0.00 | 0.20 | 0.20 | 87 | 1010.1 |
| 20260502233439 | 11 | 75 | 0.0 | 1.6 | 0.00 | 0.00 | 0.00 | 97 | 1011.6 |
| 20260502233205 | 12 | 265 | 0.0 | 0.0 | 0.00 | 0.20 | 0.20 | 87 | 1010.0 |
| 20260502232936 | 11 | 79 | 1.6 | 3.2 | 0.00 | 0.00 | 0.00 | 97 | 1011.6 |
| 20260502232433 | 11 | 44 | 0.0 | 1.6 | 0.00 | 0.00 | 0.00 | 97 | 1011.7 |
| 20260502232205 | 12 | 265 | 0.0 | 0.0 | 0.00 | 0.20 | 0.20 | 87 | 1010.1 |
| 20260502231930 | 11 | 310 | 0.0 | 1.6 | 0.00 | 0.00 | 0.00 | 97 | 1011.6 |
| 20260502231705 | 12 | 265 | 0.0 | 0.0 | 0.00 | 0.20 | 0.20 | 86 | 1010.1 |
| 20260502231427 | 11 | 103 | 0.0 | 1.6 | 0.00 | 0.00 | 0.00 | 96 | 1011.4 |
| 20260502230925 | 11 | 13 | 0.0 | 3.2 | 0.00 | 0.00 | 0.00 | 96 | 1011.4 |
| 20260502230423 | 11 | 15 | 0.0 | 3.2 | 0.00 | 0.00 | 0.00 | 96 | 1011.5 |
| 20260502225921 | 12 | 55 | 0.0 | 1.6 | 0.00 | 0.00 | 0.00 | 96 | 1011.1 |
| 20260502225706 | 12 | 265 | 0.0 | 1.6 | 0.00 | 0.20 | 0.20 | 86 | 1009.8 |
| 20260502225416 | 11 | 97 | 0.0 | 3.2 | 0.00 | 0.00 | 0.00 | 96 | 1011.1 |
| 20260502224913 | 11 | 22 | 0.0 | 1.6 | 0.00 | 0.00 | 0.00 | 96 | 1011.3 |
| 20260502224705 | 12 | 265 | 0.0 | 1.6 | 0.00 | 0.20 | 0.20 | 86 | 1009.9 |
| 20260502224409 | 11 | 21 | 0.0 | 3.2 | 0.00 | 0.00 | 0.00 | 95 | 1011.4 |
| 20260502223906 | 11 | 17 | 0.0 | 1.6 | 0.00 | 0.00 | 0.00 | 95 | 1011.3 |
| 20260502223404 | 11 | 50 | 0.0 | 1.6 | 0.00 | 0.00 | 0.00 | 95 | 1011.4 |
| 20260502223205 | 12 | 203 | 0.0 | 0.0 | 0.00 | 0.20 | 0.20 | 86 | 1009.8 |
| 20260502222903 | 11 | 51 | 0.0 | 3.2 | 0.00 | 0.00 | 0.00 | 95 | 1011.3 |
| 20260502222400 | 11 | 45 | 0.0 | 1.6 | 0.00 | 0.00 | 0.00 | 95 | 1011.3 |
| 20260502222205 | 12 | 203 | 0.0 | 1.6 | 0.00 | 0.20 | 0.20 | 86 | 1009.9 |
| 20260502221854 | 11 | 348 | 0.0 | 3.2 | 0.00 | 0.00 | 0.00 | 95 | 1011.4 |
| 20260502221352 | 11 | 73 | 0.0 | 1.6 | 0.00 | 0.00 | 0.00 | 95 | 1011.3 |
| 20260502220849 | 11 | 41 | 0.0 | 1.6 | 0.00 | 0.00 | 0.00 | 95 | 1011.4 |
| 20260502220705 | 12 | 202 | 0.0 | 1.6 | 0.00 | 0.20 | 0.20 | 85 | 1009.8 |
| 20260502220344 | 12 | 56 | 0.0 | 3.2 | 0.00 | 0.00 | 0.00 | 95 | 1011.2 |
| 20260502220205 | 12 | 202 | 0.0 | 1.6 | 0.00 | 0.20 | 0.20 | 85 | 1009.8 |
| 20260502215841 | 11 | 55 | 0.0 | 1.6 | 0.00 | 0.00 | 0.00 | 94 | 1010.9 |
| 20260502215705 | 12 | 202 | 0.0 | 3.2 | 0.00 | 0.20 | 0.20 | 85 | 1009.7 |
| 20260502215339 | 12 | 48 | 0.0 | 1.6 | 0.00 | 0.00 | 0.00 | 94 | 1011.0 |
| 20260502214835 | 12 | 89 | 0.0 | 3.2 | 0.00 | 0.00 | 0.00 | 94 | 1011.0 |
| 20260502214332 | 12 | 25 | 0.0 | 1.6 | 0.00 | 0.00 | 0.00 | 93 | 1011.0 |
| 20260502213829 | 12 | 83 | 0.0 | 3.2 | 0.00 | 0.00 | 0.00 | 93 | 1011.1 |
| 20260502213326 | 12 | 0 | 0.0 | 1.6 | 0.00 | 0.00 | 0.00 | 92 | 1011.2 |
| 20260502212825 | 12 | 58 | 1.6 | 1.6 | 0.00 | 0.00 | 0.00 | 92 | 1011.1 |
| 20260502212705 | 12 | 355 | 0.0 | 1.6 | 0.00 | 0.20 | 0.20 | 85 | 1009.7 |
| 20260502212323 | 12 | 154 | 0.0 | 3.2 | 0.00 | 0.00 | 0.00 | 92 | 1010.9 |
| 20260502212205 | 12 | 178 | 0.0 | 3.2 | 0.00 | 0.20 | 0.20 | 85 | 1009.6 |
| 20260502211820 | 12 | 269 | 0.0 | 1.6 | 0.00 | 0.00 | 0.00 | 92 | 1010.9 |
| 20260502211704 | 12 | 172 | 1.6 | 3.2 | 0.00 | 0.20 | 0.20 | 85 | 1009.5 |
| 20260502211315 | 12 | 154 | 0.0 | 4.8 | 0.00 | 0.00 | 0.00 | 91 | 1011.1 |
| 20260502210813 | 12 | 62 | 0.0 | 1.6 | 0.00 | 0.00 | 0.00 | 92 | 1010.7 |
| 20260502210705 | 12 | 181 | 1.6 | 4.8 | 0.00 | 0.23 | 0.20 | 85 | 1009.6 |
| 20260502210310 | 12 | 122 | 1.6 | 3.2 | 0.00 | 0.00 | 0.00 | 92 | 1011.0 |
| 20260502210205 | 12 | 183 | 1.6 | 4.8 | 0.00 | 0.23 | 0.20 | 88 | 1009.6 |
| 20260502205808 | 12 | 25 | 0.0 | 1.6 | 0.00 | 0.00 | 0.00 | 93 | 1011.1 |
| 20260502205705 | 12 | 212 | 0.0 | 3.2 | 0.00 | 0.23 | 0.20 | 89 | 1009.8 |
| 20260502205305 | 12 | 100 | 0.0 | 3.2 | 0.00 | 0.00 | 0.00 | 93 | 1010.9 |
| 20260502204801 | 12 | 15 | 0.0 | 3.2 | 0.00 | 0.00 | 0.00 | 93 | 1011.1 |
| 20260502204705 | 12 | 200 | 0.0 | 4.8 | 0.00 | 0.23 | 0.20 | 87 | 1009.7 |
| 20260502204257 | 12 | 89 | 0.0 | 1.6 | 0.00 | 0.00 | 0.00 | 93 | 1011.1 |
| 20260502204204 | 12 | 148 | 0.0 | 3.2 | 0.00 | 0.23 | 0.20 | 86 | 1009.8 |
| 20260502203755 | 12 | 142 | 0.0 | 4.8 | 0.00 | 0.00 | 0.00 | 93 | 1011.2 |
| 20260502203248 | 12 | 75 | 0.0 | 3.2 | 0.00 | 0.00 | 0.00 | 93 | 1011.1 |
| 20260502203205 | 12 | 186 | 1.6 | 3.2 | 0.00 | 0.23 | 0.20 | 86 | 1009.8 |
| 20260502202747 | 12 | 354 | 0.0 | 3.2 | 0.00 | 0.00 | 0.00 | 93 | 1011.3 |
| 20260502202705 | 12 | 186 | 0.0 | 4.8 | 0.00 | 0.23 | 0.20 | 86 | 1009.8 |
| 20260502202245 | 12 | 56 | 0.0 | 3.2 | 0.00 | 0.00 | 0.00 | 92 | 1011.2 |
| 20260502202205 | 12 | 179 | 1.6 | 3.2 | 0.00 | 0.23 | 0.20 | 88 | 1009.8 |
| 20260502201743 | 12 | 166 | 0.0 | 4.8 | 0.00 | 0.00 | 0.00 | 93 | 1011.1 |
| 20260502201239 | 12 | 180 | 0.0 | 3.2 | 0.00 | 0.00 | 0.00 | 93 | 1011.2 |
| 20260502201205 | 12 | 217 | 0.0 | 4.8 | 0.00 | 0.23 | 0.20 | 88 | 1009.7 |
| 20260502200735 | 12 | 62 | 0.0 | 1.6 | 0.00 | 0.00 | 0.00 | 94 | 1011.2 |
| 20260502200231 | 12 | 65 | 0.0 | 3.2 | 0.00 | 0.00 | 0.00 | 94 | 1011.1 |
| 20260502195730 | 12 | 44 | 0.0 | 1.6 | 0.00 | 0.00 | 0.00 | 93 | 1011.0 |
| 20260502195705 | 12 | 166 | 1.6 | 4.8 | 0.00 | 0.23 | 0.20 | 91 | 1009.6 |
| 20260502195221 | 12 | 269 | 0.0 | 3.2 | 0.00 | 0.00 | 0.00 | 94 | 1011.3 |
| 20260502194717 | 12 | 117 | 0.0 | 3.2 | 0.00 | 0.00 | 0.00 | 94 | 1011.0 |
| 20260502194215 | 12 | 156 | 1.6 | 3.2 | 0.00 | 0.00 | 0.00 | 95 | 1011.4 |
| 20260502193710 | 12 | 348 | 1.6 | 3.2 | 0.00 | 0.00 | 0.00 | 94 | 1011.5 |
| 20260502193705 | 12 | 164 | 0.0 | 1.6 | 0.03 | 0.23 | 0.20 | 90 | 1009.9 |
| 20260502193208 | 12 | 0 | 0.0 | 3.2 | 0.00 | 0.00 | 0.00 | 95 | 1011.5 |
| 20260502192706 | 12 | 181 | 1.6 | 4.8 | 0.03 | 0.25 | 0.20 | 90 | 1010.1 |
| 20260502192703 | 12 | 89 | 0.0 | 3.2 | 0.00 | 0.00 | 0.00 | 94 | 1011.6 |
| 20260502192205 | 12 | 202 | 0.0 | 3.2 | 0.03 | 0.25 | 0.20 | 90 | 1010.2 |
| 20260502192200 | 11 | 31 | 0.0 | 3.2 | 0.00 | 0.00 | 0.00 | 94 | 1011.5 |
| 20260502191705 | 12 | 61 | 0.0 | 1.6 | 0.03 | 0.25 | 0.20 | 90 | 1010.3 |
| 20260502191657 | 11 | 311 | 1.6 | 3.2 | 0.00 | 0.00 | 0.00 | 94 | 1011.8 |
| 20260502191154 | 12 | 148 | 1.6 | 4.8 | 0.00 | 0.00 | 0.00 | 95 | 1011.7 |
| 20260502190652 | 12 | 60 | 0.0 | 3.2 | 0.00 | 0.00 | 0.00 | 95 | 1011.8 |
| 20260502190205 | 12 | 163 | 0.0 | 1.6 | 0.03 | 0.25 | 0.20 | 92 | 1010.2 |
| 20260502190150 | 12 | 45 | 3.2 | 3.2 | 0.00 | 0.00 | 0.00 | 95 | 1011.5 |
| 20260502185705 | 12 | 203 | 1.6 | 4.8 | 0.03 | 0.25 | 0.20 | 92 | 1010.2 |
| 20260502185644 | 12 | 38 | 3.2 | 4.8 | 0.00 | 0.00 | 0.00 | 96 | 1011.6 |
| 20260502185205 | 12 | 166 | 3.2 | 9.7 | 0.03 | 0.25 | 0.20 | 92 | 1010.3 |
| 20260502185141 | 11 | 60 | 0.0 | 4.8 | 0.00 | 0.00 | 0.00 | 96 | 1011.8 |
| 20260502184637 | 11 | 343 | 0.0 | 3.2 | 0.00 | 0.00 | 0.00 | 97 | 1011.8 |
| 20260502184132 | 11 | 48 | 0.0 | 3.2 | 0.00 | 0.00 | 0.00 | 97 | 1011.8 |
| 20260502183704 | 11 | 220 | 0.0 | 1.6 | 0.00 | 0.23 | 0.18 | 93 | 1010.4 |
| 20260502183629 | 11 | 325 | 3.2 | 3.2 | 0.00 | 0.00 | 0.00 | 97 | 1011.7 |
| 20260502183126 | 11 | 7 | 0.0 | 3.2 | 0.00 | 0.00 | 0.00 | 98 | 1011.8 |
| 20260502182705 | 11 | 198 | 0.0 | 1.6 | 0.00 | 0.23 | 0.18 | 92 | 1010.4 |
| 20260502182621 | 11 | 80 | 1.6 | 3.2 | 0.00 | 0.00 | 0.00 | 98 | 1011.8 |
| 20260502182205 | 11 | 178 | 0.0 | 1.6 | 0.00 | 0.23 | 0.18 | 93 | 1010.5 |
| 20260502182116 | 11 | 22 | 0.0 | 3.2 | 0.00 | 0.00 | 0.00 | 98 | 1012.1 |
| 20260502181614 | 11 | 145 | 0.0 | 3.2 | 0.00 | 0.00 | 0.00 | 98 | 1012.1 |
| 20260502181205 | 11 | 172 | 0.0 | 1.6 | 0.00 | 0.23 | 0.18 | 92 | 1010.8 |
| 20260502181113 | 11 | 44 | 0.0 | 3.2 | 0.00 | 0.00 | 0.00 | 98 | 1012.3 |
| 20260502180705 | 11 | 161 | 0.0 | 1.6 | 0.00 | 0.23 | 0.18 | 92 | 1010.9 |
| 20260502180610 | 11 | 358 | 0.0 | 3.2 | 0.00 | 0.00 | 0.00 | 98 | 1012.4 |
| 20260502180107 | 11 | 304 | 0.0 | 3.2 | 0.00 | 0.00 | 0.00 | 98 | 1012.3 |
| 20260502170205 | 11 | 108 | 0.0 | 1.6 | 0.03 | 0.23 | 0.18 | 93 | 1011.1 |
| 20260502164204 | 11 | 205 | 0.0 | 3.2 | 0.00 | 0.20 | 0.15 | 93 | 1010.9 |
| 20260502164013 | 11 | 305 | 0.0 | 4.8 | 0.00 | 0.00 | 0.00 | 98 | 1012.3 |
| 20260502163705 | 11 | 207 | 0.0 | 1.6 | 0.00 | 0.20 | 0.15 | 93 | 1010.9 |
| 20260502163508 | 11 | 1 | 1.6 | 3.2 | 0.00 | 0.00 | 0.00 | 98 | 1012.6 |
| 20260502163205 | 11 | 169 | 0.0 | 1.6 | 0.03 | 0.20 | 0.15 | 93 | 1011.2 |
| 20260502163006 | 11 | 48 | 1.6 | 3.2 | 0.00 | 0.00 | 0.00 | 98 | 1012.6 |
| 20260502162704 | 11 | 169 | 0.0 | 0.0 | 0.03 | 0.20 | 0.15 | 93 | 1011.4 |
| 20260502162503 | 11 | 72 | 1.6 | 3.2 | 0.00 | 0.00 | 0.00 | 98 | 1013.0 |
| 20260502161959 | 11 | 164 | 0.0 | 3.2 | 0.00 | 0.00 | 0.00 | 98 | 1013.1 |
| 20260502161704 | 11 | 143 | 0.0 | 0.0 | 0.03 | 0.20 | 0.15 | 93 | 1011.8 |
| 20260502161456 | 11 | 75 | 0.0 | 3.2 | 0.00 | 0.00 | 0.00 | 98 | 1013.0 |
| 20260502160955 | 11 | 37 | 0.0 | 1.6 | 0.00 | 0.00 | 0.00 | 98 | 1013.3 |
| 20260502160704 | 11 | 129 | 0.0 | 1.6 | 0.03 | 0.20 | 0.15 | 92 | 1011.6 |
| 20260502160452 | 11 | 327 | 0.0 | 3.2 | 0.00 | 0.00 | 0.00 | 98 | 1013.0 |
| 20260502160204 | 11 | 118 | 0.0 | 3.2 | 0.03 | 0.20 | 0.15 | 92 | 1011.5 |
| 20260502152204 | 11 | 120 | 0.0 | 3.2 | 0.03 | 0.18 | 0.13 | 93 | 1011.4 |
| 20260502151941 | 11 | 80 | 3.2 | 6.4 | 0.00 | 0.00 | 0.00 | 98 | 1012.9 |
| 20260502151438 | 11 | 32 | 0.0 | 3.2 | 0.00 | 0.00 | 0.00 | 99 | 1012.7 |
| 20260502150935 | 11 | 127 | 1.6 | 6.4 | 0.00 | 0.00 | 0.00 | 99 | 1012.9 |
| 20260502150432 | 11 | 21 | 3.2 | 4.8 | 0.00 | 0.00 | 0.00 | 99 | 1012.9 |
| 20260502130318 | 10 | 59 | 1.6 | 3.2 | 0.00 | 0.00 | 0.00 | 99 | 1012.1 |
| 20260502123803 | 11 | 46 | 0.0 | 3.2 | 0.00 | 0.00 | 0.00 | 98 | 1012.1 |
| 20260502123300 | 10 | 89 | 0.0 | 4.8 | 0.00 | 0.00 | 0.00 | 98 | 1011.8 |
| 20260502122757 | 10 | 63 | 0.0 | 4.8 | 0.00 | 0.00 | 0.00 | 98 | 1011.8 |
| 20260502122705 | 11 | 90 | 0.0 | 3.2 | 0.03 | 0.10 | 0.05 | 91 | 1010.2 |
| 20260502122253 | 10 | 66 | 0.0 | 4.8 | 0.00 | 0.00 | 0.00 | 98 | 1011.7 |
| 20260502122204 | 11 | 81 | 0.0 | 1.6 | 0.03 | 0.10 | 0.05 | 91 | 1010.0 |
| 20260502121751 | 10 | 14 | 0.0 | 6.4 | 0.00 | 0.00 | 0.00 | 98 | 1011.7 |
| 20260502121249 | 10 | 51 | 3.2 | 8.0 | 0.00 | 0.00 | 0.00 | 98 | 1011.6 |
| 20260502120745 | 10 | 37 | 3.2 | 8.0 | 0.00 | 0.00 | 0.00 | 98 | 1011.8 |
| 20260502120242 | 11 | 40 | 3.2 | 8.0 | 0.00 | 0.00 | 0.00 | 98 | 1011.8 |
| 20260502115740 | 11 | 57 | 3.2 | 4.8 | 0.00 | 0.00 | 0.00 | 98 | 1011.9 |
| 20260502115237 | 11 | 47 | 3.2 | 6.4 | 0.00 | 0.00 | 0.00 | 98 | 1012.0 |
| 20260502114732 | 11 | 99 | 4.8 | 6.4 | 0.00 | 0.00 | 0.00 | 98 | 1011.7 |
| 20260502114230 | 11 | 18 | 3.2 | 6.4 | 0.00 | 0.00 | 0.00 | 98 | 1011.8 |
| 20260502114204 | 11 | 118 | 0.0 | 0.0 | 0.03 | 0.08 | 0.03 | 90 | 1010.3 |
| 20260502113727 | 11 | 69 | 3.2 | 6.4 | 0.00 | 0.00 | 0.00 | 98 | 1011.9 |
| 20260502113705 | 11 | 92 | 0.0 | 0.0 | 0.03 | 0.08 | 0.03 | 90 | 1010.3 |
| 20260502113224 | 11 | 17 | 1.6 | 8.0 | 0.00 | 0.00 | 0.00 | 98 | 1011.7 |
| 20260502112723 | 11 | 78 | 1.6 | 8.0 | 0.00 | 0.00 | 0.00 | 98 | 1011.8 |
| 20260502112220 | 11 | 16 | 0.0 | 4.8 | 0.00 | 0.00 | 0.00 | 98 | 1011.7 |
| 20260502111717 | 11 | 10 | 3.2 | 6.4 | 0.00 | 0.00 | 0.00 | 98 | 1012.0 |
| 20260502111705 | 11 | 71 | 0.0 | 1.6 | 0.00 | 0.05 | 0.00 | 91 | 1010.4 |
| 20260502111214 | 11 | 29 | 1.6 | 6.4 | 0.00 | 0.00 | 0.00 | 98 | 1012.0 |
| 20260502110712 | 11 | 104 | 0.0 | 8.0 | 0.00 | 0.00 | 0.00 | 98 | 1012.1 |
| 20260502110209 | 11 | 30 | 1.6 | 6.4 | 0.00 | 0.00 | 0.00 | 98 | 1012.0 |
| 20260502110205 | 11 | 96 | 0.0 | 3.2 | 0.00 | 0.05 | 0.00 | 91 | 1010.7 |
| 20260502105707 | 11 | 35 | 3.2 | 8.0 | 0.00 | 0.00 | 0.00 | 98 | 1012.2 |
| 20260502105205 | 11 | 83 | 1.6 | 3.2 | 0.00 | 0.05 | 0.00 | 91 | 1010.7 |
| 20260502105203 | 11 | 7 | 1.6 | 8.0 | 0.00 | 0.00 | 0.00 | 98 | 1012.1 |
| 20260502104705 | 11 | 115 | 1.6 | 4.8 | 0.00 | 0.05 | 0.00 | 91 | 1010.6 |
| 20260502104701 | 11 | 299 | 0.0 | 6.4 | 0.00 | 0.00 | 0.00 | 98 | 1012.1 |
| 20260502104204 | 11 | 100 | 0.0 | 1.6 | 0.00 | 0.05 | 0.00 | 91 | 1010.5 |
| 20260502104158 | 11 | 69 | 4.8 | 6.4 | 0.00 | 0.00 | 0.00 | 98 | 1012.1 |
| 20260502103655 | 11 | 21 | 3.2 | 6.4 | 0.00 | 0.00 | 0.00 | 98 | 1011.8 |
| 20260502103204 | 11 | 100 | 0.0 | 3.2 | 0.00 | 0.05 | 0.00 | 91 | 1010.6 |
| 20260502103153 | 11 | 80 | 4.8 | 4.8 | 0.00 | 0.00 | 0.00 | 98 | 1011.8 |
| 20260502102704 | 11 | 94 | 0.0 | 1.6 | 0.00 | 0.05 | 0.00 | 91 | 1010.7 |
| 20260502102650 | 11 | 73 | 4.8 | 8.0 | 0.00 | 0.00 | 0.00 | 98 | 1012.0 |
| 20260502102147 | 11 | 103 | 3.2 | 6.4 | 0.00 | 0.00 | 0.00 | 98 | 1012.2 |
| 20260502101704 | 11 | 91 | 1.6 | 4.8 | 0.00 | 0.05 | 0.00 | 91 | 1010.5 |
| 20260502101645 | 11 | 7 | 3.2 | 8.0 | 0.00 | 0.00 | 0.00 | 98 | 1012.0 |
| 20260502101143 | 11 | 63 | 3.2 | 8.0 | 0.00 | 0.00 | 0.00 | 98 | 1012.0 |
| 20260502100705 | 11 | 114 | 1.6 | 4.8 | 0.00 | 0.05 | 0.00 | 91 | 1010.5 |
| 20260502100641 | 11 | 45 | 4.8 | 8.0 | 0.00 | 0.00 | 0.00 | 98 | 1012.2 |
| 20260502100139 | 11 | 169 | 3.2 | 8.0 | 0.00 | 0.00 | 0.00 | 98 | 1012.0 |
| 20260502091113 | 11 | 336 | 4.8 | 9.7 | 0.00 | 0.00 | 0.00 | 99 | 1012.0 |
| 20260502090704 | 11 | 156 | 0.0 | 1.6 | 0.00 | 0.05 | 0.00 | 91 | 1010.4 |
| 20260502090610 | 11 | 26 | 4.8 | 8.0 | 0.00 | 0.00 | 0.00 | 99 | 1011.9 |
| 20260502090107 | 11 | 173 | 1.6 | 8.0 | 0.00 | 0.00 | 0.00 | 99 | 1011.8 |
| 20260502071504 | 11 | 332 | 4.8 | 9.7 | 0.00 | 0.00 | 0.00 | 99 | 1011.0 |
| 20260502071003 | 11 | 0 | 4.8 | 9.7 | 0.00 | 0.00 | 0.00 | 99 | 1010.8 |
| 20260502070500 | 11 | 251 | 3.2 | 8.0 | 0.00 | 0.00 | 0.00 | 99 | 1010.7 |
| 20260502070204 | 11 | 164 | 0.0 | 0.0 | 0.00 | 0.05 | 0.00 | 90 | 1009.5 |
| 20260502065958 | 11 | 59 | 4.8 | 9.7 | 0.00 | 0.00 | 0.00 | 99 | 1010.9 |
| 20260502065704 | 11 | 164 | 0.0 | 0.0 | 0.00 | 0.05 | 0.00 | 90 | 1009.6 |
| 20260502065456 | 11 | 174 | 4.8 | 8.0 | 0.00 | 0.00 | 0.00 | 99 | 1011.2 |
| 20260502064954 | 11 | 296 | 3.2 | 8.0 | 0.00 | 0.00 | 0.00 | 99 | 1011.1 |
| 20260502064704 | 11 | 164 | 0.0 | 0.0 | 0.00 | 0.05 | 0.00 | 90 | 1009.8 |
| 20260502064452 | 11 | 322 | 1.6 | 9.7 | 0.00 | 0.00 | 0.00 | 99 | 1011.2 |
| 20260502063948 | 11 | 1 | 4.8 | 8.0 | 0.00 | 0.00 | 0.00 | 99 | 1011.2 |
| 20260502063447 | 11 | 153 | 1.6 | 6.4 | 0.00 | 0.00 | 0.00 | 99 | 1011.2 |